Le nostre stazioni meteo in Italia

Pubblicità
Il mio iltempo24.it
Dalwhinnie, Gran Bretagna (99005): Temperatura & dewpoint: 22.03.2017 10:00:00 - 28.03.2017 10:00:00 (BST)Dalwhinnie, Gran Bretagna (99005): precipitazioni: 22.03.2017 10:00:00 - 28.03.2017 10:00:00 (BST)
Data & Tempo tt [°C] td [°C] rr [mm]
28.03.2017 10:00:00 4,6 1,3 0,0
28.03.2017 09:00:00 3,6 1,0 0,0
28.03.2017 08:00:00 2,6 1,0 0,0
28.03.2017 07:00:00 2,3 0,8 0,0
28.03.2017 06:00:00 3,2 1,8 0,0
28.03.2017 05:00:00 3,1 1,6 0,0
28.03.2017 04:00:00 3,2 1,8 0,0
28.03.2017 03:00:00 2,7 2,0 0,0
28.03.2017 02:00:00 2,6 1,8 0,0
28.03.2017 01:00:00 3,6 1,3 0,0
28.03.2017 00:00:00 6,5 1,2 0,0
27.03.2017 23:00:00 4,5 1,8 0,0
27.03.2017 22:00:00 5,4 1,2 0,0
27.03.2017 21:00:00 7,2 1,5 0,0
27.03.2017 20:00:00 9,0 2,0 0,0
27.03.2017 19:00:00 11,9 2,4 0,0
27.03.2017 18:00:00 14,2 3,7 0,0
27.03.2017 17:00:00 14,8 3,5 0,0
27.03.2017 16:00:00 15,4 2,8 0,0
27.03.2017 15:00:00 16,1 4,0 0,0
27.03.2017 14:00:00 15,3 4,8 0,0
27.03.2017 13:00:00 14,7 2,8 0,0
27.03.2017 12:00:00 14,0 4,6 0,0
27.03.2017 11:00:00 12,1 4,0 0,0
27.03.2017 10:00:00 9,6 4,3 0,0
27.03.2017 09:00:00 4,9 4,0 0,0
27.03.2017 08:00:00 0,8 0,0 0,0
27.03.2017 07:00:00 0,5 -0,8 0,0
27.03.2017 06:00:00 2,3 1,1 0,0
27.03.2017 05:00:00 2,4 1,3 0,0
27.03.2017 04:00:00 3,9 1,0 0,0
27.03.2017 03:00:00 5,1 2,3 0,0
27.03.2017 02:00:00 5,0 2,6 0,0
27.03.2017 01:00:00 5,4 2,2 0,0
27.03.2017 00:00:00 4,9 1,6 0,0
26.03.2017 23:00:00 7,2 3,4 0,0
26.03.2017 22:00:00 9,4 3,4 0,0
26.03.2017 21:00:00 10,4 3,5 0,0
26.03.2017 20:00:00 11,3 4,3 0,0
26.03.2017 19:00:00 13,3 3,9 0,0
26.03.2017 18:00:00 14,7 4,4 0,0
26.03.2017 17:00:00 15,7 4,2 0,0
26.03.2017 16:00:00 16,4 2,7 0,0
26.03.2017 15:00:00 16,3 2,5 0,0
26.03.2017 14:00:00 16,1 2,0 0,0
26.03.2017 13:00:00 15,0 0,8 0,0
26.03.2017 12:00:00 14,3 0,6 0,0
26.03.2017 11:00:00 12,8 1,0 0,0
26.03.2017 10:00:00 7,2 3,6 0,0
26.03.2017 09:00:00 1,2 0,5 0,0
26.03.2017 08:00:00 -1,0 -1,3 0,0
26.03.2017 07:00:00 -2,6 -3,1 0,0
26.03.2017 06:00:00 -2,5 -3,2 0,0
26.03.2017 05:00:00 -0,9 -1,3 0,0
26.03.2017 04:00:00 -1,8 -2,6 0,0
26.03.2017 03:00:00 -1,6 -3,0 0,0
26.03.2017 02:00:00 0,5 -1,3 0,0
26.03.2017 01:00:00 0,3 -1,3 0,0
26.03.2017 00:00:00 1,0 -0,4 0,0
25.03.2017 23:00:00 1,5 -0,8 0,0
25.03.2017 22:00:00 1,2 -0,9 0,0
25.03.2017 21:00:00 1,9 -0,6 0,0
25.03.2017 20:00:00 5,7 1,4 0,0
25.03.2017 19:00:00 9,7 0,6 0,0
25.03.2017 18:00:00 12,6 -0,7 0,0
25.03.2017 17:00:00 13,8 -1,9 0,0
25.03.2017 16:00:00 13,6 -5,3 0,0
25.03.2017 15:00:00 13,3 -4,6 0,0
25.03.2017 14:00:00 13,3 -6,3 0,0
25.03.2017 13:00:00 12,8 -4,1 0,0
25.03.2017 12:00:00 10,5 -2,6 0,0
25.03.2017 11:00:00 6,4 0,1 0,0
25.03.2017 10:00:00 4,6 0,7 0,0
25.03.2017 09:00:00 1,5 -1,7 0,0
25.03.2017 08:00:00 -1,5 -2,8 0,0
25.03.2017 07:00:00 -1,6 -3,4 0,0
25.03.2017 06:00:00 -2,1 -2,9 0,0
25.03.2017 05:00:00 -2,0 -2,6 0,0
25.03.2017 04:00:00 -1,1 -2,3 0,0
25.03.2017 03:00:00 -1,8 -2,9 0,0
25.03.2017 02:00:00 -0,6 -1,6 0,0
25.03.2017 01:00:00 0,0 -0,8 0,0
25.03.2017 00:00:00 -0,1 -1,1 0,0
24.03.2017 23:00:00 1,4 -0,5 0,0
24.03.2017 22:00:00 2,8 0,4 0,0
24.03.2017 21:00:00 4,3 0,4 0,0
24.03.2017 20:00:00 4,9 0,3 0,0
24.03.2017 19:00:00 6,8 0,6 0,0
24.03.2017 18:00:00 7,6 0,9 0,0
24.03.2017 17:00:00 8,1 1,2 0,0
24.03.2017 16:00:00 8,2 1,3 0,0
24.03.2017 15:00:00 7,6 1,7 0,0
24.03.2017 14:00:00 7,3 2,0 0,0
24.03.2017 13:00:00 6,8 1,7 0,0
24.03.2017 12:00:00 6,0 1,0 0,0
24.03.2017 11:00:00 4,7 0,4 0,0
24.03.2017 10:00:00 2,9 0,0 0,0
24.03.2017 09:00:00 1,8 -0,3 0,0
24.03.2017 08:00:00 0,0 -1,6 0,0
24.03.2017 07:00:00 -1,2 -2,6 0,0
24.03.2017 06:00:00 0,0 -1,0 0,0
24.03.2017 05:00:00 -1,2 -2,5 0,0
24.03.2017 04:00:00 -0,3 -2,1 0,0
24.03.2017 03:00:00 0,5 -1,3 0,0
24.03.2017 02:00:00 1,4 -1,4 0,0
24.03.2017 01:00:00 2,1 -0,8 0,0
24.03.2017 00:00:00 1,8 -0,7 0,0
23.03.2017 23:00:00 1,9 -0,1 0,0
23.03.2017 22:00:00 1,7 -0,3 0,0
23.03.2017 21:00:00 3,0 0,0 0,0
23.03.2017 20:00:00 3,4 -0,1 0,0
23.03.2017 19:00:00 3,9 0,3 0,0
23.03.2017 18:00:00 4,5 0,0 0,0
23.03.2017 17:00:00 4,9 -0,3 0,0
23.03.2017 16:00:00 4,8 -0,3 0,0
23.03.2017 15:00:00 4,9 -1,4 0,0
23.03.2017 14:00:00 5,2 -1,6 0,0
23.03.2017 13:00:00 5,0 -1,9 0,0
23.03.2017 12:00:00 3,9 -2,0 0,0
23.03.2017 11:00:00 2,5 -1,8 0,0
23.03.2017 10:00:00 0,5 -2,5 0,0
23.03.2017 09:00:00 -1,0 -3,4 0,0
23.03.2017 08:00:00 -2,4 -4,1 0,0
23.03.2017 07:00:00 -2,3 -4,2 0,0
23.03.2017 06:00:00 -1,5 -3,7 0,0
23.03.2017 05:00:00 -1,9 -3,2 0,0
23.03.2017 04:00:00 -1,3 -2,8 0,0
23.03.2017 03:00:00 -1,1 -2,7 0,0
23.03.2017 02:00:00 -1,2 -2,4 0,0
23.03.2017 01:00:00 -1,2 -2,4 0,0
23.03.2017 00:00:00 -0,5 -1,7 0,0
22.03.2017 23:00:00 -0,2 -1,1 0,0
22.03.2017 22:00:00 -1,0 -2,4 -
22.03.2017 21:00:00 0,2 -1,7 0,0
22.03.2017 20:00:00 1,4 -2,1 0,0
22.03.2017 19:00:00 2,2 -1,7 0,0
22.03.2017 18:00:00 3,0 -2,7 0,0
22.03.2017 17:00:00 2,9 -2,3 0,2
22.03.2017 16:00:00 2,8 -1,2 0,0
22.03.2017 15:00:00 3,4 -2,0 0,0
22.03.2017 14:00:00 2,5 -0,4 0,0
22.03.2017 13:00:00 1,7 -0,6 0,0
22.03.2017 12:00:00 1,4 -0,8 0,0
22.03.2017 11:00:00 -0,2 -1,3 0,0
22.03.2017 10:00:00 - - -

tt = Temperatura
td = dewpoint
rr = precipitazioni

Stazioni seguenti

WeatherPro
AMSI
MeteoEarth